Flag for U.S.A. Weather past 2 weeks in Winston-Salem, North Carolina, U.S.A.

Now
72 °F

Overcast.


Feels Like: 73 °F
Forecast: 66 / 83 °F
Wind: 3 mph from East

Location: Smith Reynolds Airport

Current Time: Jul 25, 2014 at 10:40:01 AM

Latest Report: Jul 25, 2014 at 10:01 AM


Visibility: 10 mi

Pressure: 30.10 "Hg

Humidity: 76%

Dew point: 64 °F

Location of Winston-SalemLocation

Historic Weather in Winston-Salem — Graph

°F

Winston-Salem temperature yesterday

Maximum temperature yesterday: 89 °F (at 4:54 PM)
Minimum temperature yesterday: 68 °F (at 11:54 PM)
Average temperature yesterday: 77 °F

Past Weeks' High & Low Weather Summary

 TemperatureHumidityPressure
High93 °F (Jul 14, 3:54 PM)94% (Jul 19, 11:54 PM)30.22 "Hg (Jul 19, 11:54 PM)
Low59 °F (Jul 17, 6:54 AM)26% (Jul 16, 6:54 PM)29.75 "Hg (Jul 15, 4:54 PM)
Average75 °F70%30.05 "Hg
* Reported Jul 10 8:54 AM — Jul 25 8:54 AM, Winston-Salem, Weather by CustomWeather, © 2014

Note: Actual official high and low records may vary slightly from our data, if they occured in-between our weather recording intervals... More about our weather records

Advertising

Winston-Salem weather history for previous 24 hours

 ConditionsComfort  
Time TempWeatherWind HumidityBarometerVisibility
8:54 AM
Jul 25
71 °FPartly sunny.5 mph84%30.06 "Hg10 mi
7:54 AM68 °FScattered clouds.3 mph90%30.06 "Hg10 mi
6:54 AM67 °FPassing clouds.No wind93%30.04 "Hg10 mi
5:54 AM67 °FMostly cloudy.No wind93%30.02 "Hg10 mi
4:54 AM66 °FClear.3 mph90%29.99 "Hg9 mi
3:54 AM67 °FPassing clouds.3 mph93%29.99 "Hg10 mi
2:54 AM68 °FPassing clouds.3 mph90%29.99 "Hg10 mi
1:54 AM68 °FMostly cloudy.3 mph90%30.00 "Hg10 mi
12:54 AM69 °FOvercast.5 mph87%29.99 "Hg10 mi
11:54 PM
Jul 24
68 °FMostly cloudy.7 mph90%29.98 "Hg10 mi
10:54 PM70 °FPassing clouds.8 mph87%29.97 "Hg10 mi
9:54 PM71 °FClear.5 mph90%29.95 "Hg10 mi
8:54 PM71 °FPassing clouds.No wind90%29.93 "Hg10 mi
7:54 PM71 °FScattered clouds.5 mph90%29.90 "Hg10 mi
7:02 PM71 °FStrong thunderstorms. Partly sunny.18 mph84%29.92 "Hg1 mi
6:54 PM76 °FThunderstorms. Scattered clouds.20 mph69%29.88 "Hg10 mi
5:54 PM87 °FSunny.5 mph46%29.83 "Hg10 mi
4:54 PM89 °FSunny.9 mph43%29.83 "Hg10 mi
3:54 PM87 °FPassing clouds.10 mph48%29.84 "Hg10 mi
2:54 PM86 °FScattered clouds.8 mph49%29.85 "Hg10 mi
1:54 PM85 °FScattered clouds.No wind59%29.87 "Hg10 mi
12:54 PM82 °FPassing clouds.6 mph63%29.90 "Hg10 mi
11:54 AM80 °FPassing clouds.3 mph69%29.92 "Hg10 mi
10:54 AM79 °FSunny.No wind74%29.92 "Hg10 mi
Weather by CustomWeather, © 2014

See weather overviewHow to use our weather pages